Location: Campillo
(40.8621°N, 4.2488°W)
Time: 21:02:12
(UTC+00:00)

Centaur D AC-29 - Pass Details

Date: 01 October 2021
Orbit: 571 x 36266 km, 26.8° (Epoch: 24 October)

Event Time Altitude Azimuth Distance (km) Brightness Sun altitude
Rises 02:16:57 0° 173° (S) 11,737 7.3 -42.3°
Reaches altitude 10° 02:31:59 10° 160° (SSE) 14,615 7.8 -40.2°
Maximum altitude 11:20:44 70° 184° (S) 15,538 9.4 44.5°
Drops below altitude 10° 12:10:36 10° 108° (ESE) 6,982 6.7 45.7°
Sets 12:13:28 0° 106° (ESE) 7,122 6.6 45.7°
